Time,TemperatureF,DewpointF,PressureIn,WindDirection,WindDirectionDegrees,WindSpeedMPH,WindSpeedGustMPH,Humidity,HourlyPrecipIn,Conditions,Clouds,dailyrainin,SoftwareType,DateUTC
2013-10-24 00:01:00,33.6,26.0,29.15,West,270,7.2,8.0,69,0.00,,,0.00,Rainwise IP-100,2013-10-24 05:01:00,
2013-10-24 00:06:00,33.7,26.0,29.15,NW,315,4.2,10.0,69,0.00,,,0.00,Rainwise IP-100,2013-10-24 05:06:00,
2013-10-24 00:11:00,33.6,26.0,29.15,WSW,247,4.7,11.0,68,0.00,,,0.00,Rainwise IP-100,2013-10-24 05:11:00,
2013-10-24 00:16:00,33.4,24.0,29.15,NW,315,4.4,12.0,68,0.00,,,0.00,Rainwise IP-100,2013-10-24 05:16:00,
2013-10-24 00:21:00,33.4,24.0,29.15,NNW,337,3.5,10.0,69,0.00,,,0.00,Rainwise IP-100,2013-10-24 05:21:00,
2013-10-24 00:26:00,33.4,24.0,29.15,NW,315,7.7,12.0,69,0.00,,,0.00,Rainwise IP-100,2013-10-24 05:26:00,
2013-10-24 00:31:00,33.3,24.0,29.15,WNW,292,7.5,10.0,69,0.00,,,0.00,Rainwise IP-100,2013-10-24 05:31:00,
2013-10-24 00:36:00,33.4,24.0,29.15,WNW,292,6.8,11.0,69,0.00,,,0.00,Rainwise IP-100,2013-10-24 05:36:00,
2013-10-24 00:41:00,33.5,26.0,29.15,WNW,292,7.0,12.0,68,0.00,,,0.00,Rainwise IP-100,2013-10-24 05:41:00,
2013-10-24 00:46:00,33.5,26.0,29.15,West,270,6.5,11.0,69,0.00,,,0.00,Rainwise IP-100,2013-10-24 05:46:00,
2013-10-24 00:51:00,33.5,26.0,29.16,WNW,292,6.3,9.0,70,0.00,,,0.00,Rainwise IP-100,2013-10-24 05:51:00,
2013-10-24 00:56:00,33.4,24.0,29.16,WNW,292,11.4,11.4,70,0.00,,,0.00,Rainwise IP-100,2013-10-24 05:56:00,
2013-10-24 01:01:00,33.3,24.0,29.16,WNW,292,6.3,12.0,70,0.00,,,0.00,Rainwise IP-100,2013-10-24 06:01:00,
2013-10-24 01:06:00,33.3,24.0,29.16,NW,315,3.0,13.0,70,0.00,,,0.00,Rainwise IP-100,2013-10-24 06:06:00,
2013-10-24 01:11:00,33.3,24.0,29.16,West,270,7.7,14.0,69,0.00,,,0.00,Rainwise IP-100,2013-10-24 06:11:00,
2013-10-24 01:16:00,33.4,24.0,29.16,NW,315,11.0,12.0,69,0.00,,,0.00,Rainwise IP-100,2013-10-24 06:16:00,
2013-10-24 01:21:00,33.4,24.0,29.16,WSW,247,1.6,14.0,68,0.00,,,0.00,Rainwise IP-100,2013-10-24 06:21:00,
2013-10-24 01:26:00,33.2,24.0,29.16,WNW,292,10.5,12.0,68,0.00,,,0.00,Rainwise IP-100,2013-10-24 06:26:00,
2013-10-24 01:31:00,33.2,24.0,29.17,WNW,292,6.3,12.0,68,0.00,,,0.00,Rainwise IP-100,2013-10-24 06:31:00,
2013-10-24 01:36:00,33.2,24.0,29.16,WNW,292,5.4,13.0,68,0.00,,,0.00,Rainwise IP-100,2013-10-24 06:36:00,
2013-10-24 01:41:00,33.3,24.0,29.17,WNW,292,6.8,11.0,68,0.00,,,0.00,Rainwise IP-100,2013-10-24 06:41:00,
2013-10-24 01:46:00,33.3,24.0,29.16,WNW,292,5.8,11.0,69,0.00,,,0.00,Rainwise IP-100,2013-10-24 06:46:00,
2013-10-24 01:51:00,33.2,24.0,29.16,South,180,2.6,10.0,68,0.00,,,0.00,Rainwise IP-100,2013-10-24 06:51:00,
2013-10-24 01:56:00,33.2,24.0,29.16,West,270,7.0,9.0,68,0.00,,,0.00,Rainwise IP-100,2013-10-24 06:56:00,
2013-10-24 02:01:00,33.2,24.0,29.17,WNW,292,5.8,11.0,68,0.00,,,0.00,Rainwise IP-100,2013-10-24 07:01:00,
2013-10-24 02:06:00,33.1,24.0,29.17,WNW,292,1.4,12.0,68,0.00,,,0.00,Rainwise IP-100,2013-10-24 07:06:00,
2013-10-24 02:11:00,33.2,24.0,29.17,WNW,292,7.0,11.0,69,0.00,,,0.00,Rainwise IP-100,2013-10-24 07:11:00,
2013-10-24 02:16:00,33.2,24.0,29.17,West,270,6.8,10.0,70,0.00,,,0.00,Rainwise IP-100,2013-10-24 07:16:00,
2013-10-24 02:21:00,33.3,24.0,29.18,WNW,292,9.3,13.0,70,0.00,,,0.00,Rainwise IP-100,2013-10-24 07:21:00,
2013-10-24 02:26:00,33.5,26.0,29.17,WSW,247,5.8,12.0,70,0.00,,,0.00,Rainwise IP-100,2013-10-24 07:26:00,
2013-10-24 02:31:00,33.5,26.0,29.18,WSW,247,6.8,10.0,70,0.00,,,0.00,Rainwise IP-100,2013-10-24 07:31:00,
2013-10-24 02:36:00,33.3,24.0,29.18,WNW,292,7.7,11.0,70,0.00,,,0.00,Rainwise IP-100,2013-10-24 07:36:00,
2013-10-24 02:41:00,33.2,24.0,29.18,West,270,3.5,10.0,69,0.00,,,0.00,Rainwise IP-100,2013-10-24 07:41:00,
2013-10-24 02:46:00,33.3,24.0,29.18,West,270,5.8,10.0,69,0.00,,,0.00,Rainwise IP-100,2013-10-24 07:46:00,
2013-10-24 02:51:00,33.3,24.0,29.18,WNW,292,8.4,11.0,69,0.00,,,0.00,Rainwise IP-100,2013-10-24 07:51:00,
2013-10-24 02:56:00,33.2,24.0,29.18,West,270,6.1,11.0,69,0.00,,,0.00,Rainwise IP-100,2013-10-24 07:56:00,
2013-10-24 03:01:00,33.4,24.0,29.18,West,270,8.2,10.0,70,0.00,,,0.00,Rainwise IP-100,2013-10-24 08:01:00,
2013-10-24 03:06:00,33.5,26.0,29.18,West,270,5.4,8.0,71,0.00,,,0.00,Rainwise IP-100,2013-10-24 08:06:00,
2013-10-24 03:11:00,33.4,24.0,29.18,West,270,4.2,8.0,71,0.00,,,0.00,Rainwise IP-100,2013-10-24 08:11:00,
2013-10-24 03:16:00,33.2,24.0,29.18,West,270,2.8,9.0,71,0.00,,,0.00,Rainwise IP-100,2013-10-24 08:16:00,
2013-10-24 03:21:00,33.2,24.0,29.18,WNW,292,4.4,8.0,71,0.00,,,0.00,Rainwise IP-100,2013-10-24 08:21:00,
2013-10-24 03:26:00,33.3,24.0,29.18,West,270,5.1,8.0,71,0.00,,,0.00,Rainwise IP-100,2013-10-24 08:26:00,
2013-10-24 03:31:00,33.2,24.0,29.19,West,270,3.0,11.0,71,0.00,,,0.00,Rainwise IP-100,2013-10-24 08:31:00,
2013-10-24 03:36:00,33.2,24.0,29.19,West,270,7.2,10.0,71,0.00,,,0.00,Rainwise IP-100,2013-10-24 08:36:00,
2013-10-24 03:41:00,33.2,26.0,29.18,WSW,247,5.1,9.0,72,0.00,,,0.00,Rainwise IP-100,2013-10-24 08:41:00,
2013-10-24 03:46:00,33.3,26.0,29.19,WSW,247,9.6,10.0,72,0.00,,,0.00,Rainwise IP-100,2013-10-24 08:46:00,
2013-10-24 03:51:00,33.1,26.0,29.18,West,270,5.8,10.0,72,0.00,,,0.00,Rainwise IP-100,2013-10-24 08:51:00,
2013-10-24 03:56:00,33.1,26.0,29.19,West,270,4.0,9.0,72,0.00,,,0.00,Rainwise IP-100,2013-10-24 08:56:00,
2013-10-24 04:01:00,33.2,26.0,29.19,WSW,247,5.6,12.0,73,0.00,,,0.00,Rainwise IP-100,2013-10-24 09:01:00,
2013-10-24 04:06:00,33.2,26.0,29.19,WSW,247,5.6,11.0,73,0.00,,,0.00,Rainwise IP-100,2013-10-24 09:06:00,
2013-10-24 04:11:00,33.1,26.0,29.19,WSW,247,5.4,11.0,73,0.00,,,0.00,Rainwise IP-100,2013-10-24 09:11:00,
2013-10-24 04:16:00,33.1,26.0,29.19,WSW,247,9.3,11.0,73,0.00,,,0.00,Rainwise IP-100,2013-10-24 09:16:00,
2013-10-24 04:21:00,33.2,26.0,29.19,NW,315,3.7,11.0,73,0.00,,,0.00,Rainwise IP-100,2013-10-24 09:21:00,
2013-10-24 04:26:00,33.3,26.0,29.19,WSW,247,4.0,11.0,74,0.00,,,0.00,Rainwise IP-100,2013-10-24 09:26:00,
2013-10-24 04:31:00,33.2,26.0,29.19,WSW,247,4.4,10.0,74,0.00,,,0.00,Rainwise IP-100,2013-10-24 09:31:00,
2013-10-24 04:36:00,33.3,26.0,29.19,WSW,247,10.7,12.0,74,0.00,,,0.00,Rainwise IP-100,2013-10-24 09:36:00,
2013-10-24 04:41:00,33.3,26.0,29.19,West,270,10.3,13.0,74,0.00,,,0.00,Rainwise IP-100,2013-10-24 09:41:00,
2013-10-24 04:46:00,33.4,26.0,29.20,WSW,247,4.9,11.0,75,0.00,,,0.00,Rainwise IP-100,2013-10-24 09:46:00,
2013-10-24 04:51:00,33.5,28.0,29.20,WNW,292,10.3,13.0,75,0.00,,,0.00,Rainwise IP-100,2013-10-24 09:51:00,
2013-10-24 04:56:00,33.4,26.0,29.20,WSW,247,4.9,11.0,76,0.00,,,0.00,Rainwise IP-100,2013-10-24 09:56:00,
2013-10-24 05:01:00,33.3,26.0,29.20,West,270,7.2,12.0,76,0.00,,,0.00,Rainwise IP-100,2013-10-24 10:01:00,
2013-10-24 05:06:00,33.3,26.0,29.20,WSW,247,6.1,11.0,76,0.00,,,0.00,Rainwise IP-100,2013-10-24 10:06:00,
2013-10-24 05:11:00,33.3,28.0,29.20,West,270,3.3,11.0,77,0.00,,,0.00,Rainwise IP-100,2013-10-24 10:11:00,
2013-10-24 05:16:00,33.3,28.0,29.20,WSW,247,8.2,14.0,77,0.00,,,0.00,Rainwise IP-100,2013-10-24 10:16:00,
2013-10-24 05:21:00,33.2,28.0,29.20,West,270,10.3,12.0,78,0.00,,,0.00,Rainwise IP-100,2013-10-24 10:21:00,
2013-10-24 05:26:00,33.3,28.0,29.20,WNW,292,4.9,12.0,78,0.00,,,0.00,Rainwise IP-100,2013-10-24 10:26:00,
2013-10-24 05:31:00,33.3,28.0,29.21,WSW,247,9.3,11.0,79,0.00,,,0.00,Rainwise IP-100,2013-10-24 10:31:00,
2013-10-24 05:36:00,33.2,28.0,29.20,West,270,4.7,11.0,79,0.00,,,0.00,Rainwise IP-100,2013-10-24 10:36:00,
2013-10-24 05:41:00,33.2,28.0,29.21,WNW,292,7.2,12.0,80,0.00,,,0.00,Rainwise IP-100,2013-10-24 10:41:00,
2013-10-24 05:46:00,33.1,28.0,29.21,WSW,247,7.7,14.0,80,0.00,,,0.00,Rainwise IP-100,2013-10-24 10:46:00,
2013-10-24 05:51:00,33.0,28.0,29.21,WSW,247,5.1,12.0,80,0.00,,,0.00,Rainwise IP-100,2013-10-24 10:51:00,
2013-10-24 05:56:00,32.9,28.0,29.21,WSW,247,9.3,14.0,81,0.00,,,0.00,Rainwise IP-100,2013-10-24 10:56:00,
2013-10-24 06:01:00,32.8,28.0,29.22,WSW,247,7.5,12.0,81,0.00,,,0.00,Rainwise IP-100,2013-10-24 11:01:00,
2013-10-24 06:06:00,32.8,29.0,29.22,West,270,5.8,13.0,82,0.00,,,0.00,Rainwise IP-100,2013-10-24 11:06:00,
2013-10-24 06:11:00,32.9,29.0,29.22,WSW,247,7.0,14.0,83,0.00,,,0.00,Rainwise IP-100,2013-10-24 11:11:00,
2013-10-24 06:16:00,32.8,29.0,29.22,West,270,6.1,12.0,83,0.00,,,0.00,Rainwise IP-100,2013-10-24 11:16:00,
2013-10-24 06:21:00,32.7,29.0,29.22,West,270,3.5,11.0,83,0.00,,,0.00,Rainwise IP-100,2013-10-24 11:21:00,
2013-10-24 06:26:00,32.6,29.0,29.23,WSW,247,7.2,11.0,83,0.00,,,0.00,Rainwise IP-100,2013-10-24 11:26:00,
2013-10-24 06:31:00,32.6,29.0,29.23,West,270,8.4,10.0,84,0.00,,,0.00,Rainwise IP-100,2013-10-24 11:31:00,
2013-10-24 06:36:00,32.6,29.0,29.23,West,270,7.9,12.0,84,0.00,,,0.00,Rainwise IP-100,2013-10-24 11:36:00,
2013-10-24 06:41:00,32.5,29.0,29.23,WSW,247,4.7,10.0,84,0.00,,,0.00,Rainwise IP-100,2013-10-24 11:41:00,
2013-10-24 06:46:00,32.6,29.0,29.23,West,270,6.3,11.0,84,0.00,,,0.00,Rainwise IP-100,2013-10-24 11:46:00,
2013-10-24 06:51:00,32.6,29.0,29.24,West,270,4.4,13.0,85,0.00,,,0.00,Rainwise IP-100,2013-10-24 11:51:00,
2013-10-24 06:56:00,32.6,29.0,29.23,WSW,247,7.2,11.0,85,0.00,,,0.00,Rainwise IP-100,2013-10-24 11:56:00,
2013-10-24 07:01:00,32.6,29.0,29.24,West,270,6.3,11.0,85,0.00,,,0.00,Rainwise IP-100,2013-10-24 12:01:00,
2013-10-24 07:06:00,32.5,29.0,29.24,WNW,292,5.1,11.0,86,0.00,,,0.00,Rainwise IP-100,2013-10-24 12:06:00,
2013-10-24 07:11:00,32.5,29.0,29.24,WSW,247,4.7,12.0,86,0.00,,,0.00,Rainwise IP-100,2013-10-24 12:11:00,
2013-10-24 07:16:00,32.5,29.0,29.24,WNW,292,2.6,13.0,86,0.00,,,0.00,Rainwise IP-100,2013-10-24 12:16:00,
2013-10-24 07:21:00,32.4,28.0,29.24,West,270,2.6,10.0,86,0.00,,,0.00,Rainwise IP-100,2013-10-24 12:21:00,
2013-10-24 07:26:00,32.4,28.0,29.24,WSW,247,7.0,12.0,86,0.00,,,0.00,Rainwise IP-100,2013-10-24 12:26:00,
2013-10-24 07:31:00,32.3,29.0,29.24,West,270,7.2,10.0,87,0.00,,,0.00,Rainwise IP-100,2013-10-24 12:31:00,
2013-10-24 07:36:00,32.3,29.0,29.24,WSW,247,5.8,10.0,87,0.00,,,0.00,Rainwise IP-100,2013-10-24 12:36:00,
2013-10-24 07:41:00,32.2,29.0,29.24,West,270,7.2,9.0,87,0.00,,,0.00,Rainwise IP-100,2013-10-24 12:41:00,
2013-10-24 07:46:00,32.3,29.0,29.24,West,270,2.8,11.0,87,0.00,,,0.00,Rainwise IP-100,2013-10-24 12:46:00,
2013-10-24 07:51:00,32.4,29.0,29.24,WSW,247,8.9,11.0,87,0.00,,,0.00,Rainwise IP-100,2013-10-24 12:51:00,
2013-10-24 07:56:00,32.5,31.0,29.24,SW,225,6.8,8.0,88,0.00,,,0.00,Rainwise IP-100,2013-10-24 12:56:00,
2013-10-24 08:01:00,32.5,31.0,29.24,West,270,5.6,9.0,88,0.00,,,0.00,Rainwise IP-100,2013-10-24 13:01:00,
2013-10-24 08:06:00,32.5,31.0,29.24,WSW,247,7.7,13.0,88,0.00,,,0.00,Rainwise IP-100,2013-10-24 13:06:00,
2013-10-24 08:11:00,32.5,31.0,29.24,WSW,247,6.8,8.0,88,0.00,,,0.00,Rainwise IP-100,2013-10-24 13:11:00,
2013-10-24 08:16:00,32.7,31.0,29.25,WNW,292,3.7,10.0,89,0.00,,,0.00,Rainwise IP-100,2013-10-24 13:16:00,
2013-10-24 08:21:00,32.7,31.0,29.24,West,270,6.3,11.0,89,0.00,,,0.00,Rainwise IP-100,2013-10-24 13:21:00,
2013-10-24 08:26:00,32.7,31.0,29.25,West,270,4.2,12.0,89,0.00,,,0.00,Rainwise IP-100,2013-10-24 13:26:00,
2013-10-24 08:31:00,32.8,31.0,29.25,WNW,292,4.2,10.0,89,0.00,,,0.00,Rainwise IP-100,2013-10-24 13:31:00,
2013-10-24 08:36:00,32.9,31.0,29.26,WSW,247,7.9,10.0,89,0.00,,,0.00,Rainwise IP-100,2013-10-24 13:36:00,
2013-10-24 08:41:00,33.0,31.0,29.26,WSW,247,5.6,11.0,90,0.00,,,0.00,Rainwise IP-100,2013-10-24 13:41:00,
2013-10-24 08:46:00,32.9,31.0,29.26,WNW,292,8.2,10.0,90,0.00,,,0.00,Rainwise IP-100,2013-10-24 13:46:00,
2013-10-24 08:51:00,32.9,31.0,29.26,West,270,6.3,9.0,90,0.00,,,0.00,Rainwise IP-100,2013-10-24 13:51:00,
2013-10-24 08:56:00,33.0,31.0,29.26,WNW,292,2.3,10.0,90,0.00,,,0.00,Rainwise IP-100,2013-10-24 13:56:00,
2013-10-24 09:01:00,33.1,31.0,29.26,WSW,247,3.3,11.0,90,0.00,,,0.00,Rainwise IP-100,2013-10-24 14:01:00,
2013-10-24 09:06:00,33.3,31.0,29.27,West,270,2.6,8.0,90,0.00,,,0.00,Rainwise IP-100,2013-10-24 14:06:00,
2013-10-24 09:11:00,33.5,32.0,29.27,WSW,247,8.4,9.0,90,0.00,,,0.00,Rainwise IP-100,2013-10-24 14:11:00,
2013-10-24 09:16:00,33.8,32.0,29.27,WSW,247,4.9,10.0,90,0.00,,,0.00,Rainwise IP-100,2013-10-24 14:16:00,
2013-10-24 09:21:00,34.0,32.0,29.27,WSW,247,10.0,11.0,89,0.00,,,0.00,Rainwise IP-100,2013-10-24 14:21:00,
2013-10-24 09:26:00,34.3,32.0,29.27,WSW,247,7.2,12.0,89,0.00,,,0.00,Rainwise IP-100,2013-10-24 14:26:00,
2013-10-24 09:31:00,34.4,32.0,29.27,West,270,4.9,13.0,88,0.00,,,0.00,Rainwise IP-100,2013-10-24 14:31:00,
2013-10-24 09:36:00,34.5,31.0,29.27,NW,315,1.9,13.0,87,0.00,,,0.00,Rainwise IP-100,2013-10-24 14:36:00,
2013-10-24 09:41:00,34.7,31.0,29.27,West,270,9.3,11.0,87,0.00,,,0.00,Rainwise IP-100,2013-10-24 14:41:00,
2013-10-24 09:46:00,35.1,31.0,29.27,West,270,8.4,13.0,86,0.00,,,0.00,Rainwise IP-100,2013-10-24 14:46:00,
2013-10-24 09:51:00,35.4,31.0,29.28,WNW,292,6.8,11.0,85,0.00,,,0.00,Rainwise IP-100,2013-10-24 14:51:00,
2013-10-24 09:56:00,35.6,32.0,29.28,West,270,5.1,13.0,85,0.00,,,0.00,Rainwise IP-100,2013-10-24 14:56:00,
2013-10-24 10:01:00,35.7,32.0,29.27,West,270,11.0,14.0,84,0.00,,,0.00,Rainwise IP-100,2013-10-24 15:01:00,
2013-10-24 10:06:00,36.0,31.0,29.27,West,270,4.2,12.0,83,0.00,,,0.00,Rainwise IP-100,2013-10-24 15:06:00,
2013-10-24 10:11:00,36.3,31.0,29.28,WSW,247,4.0,13.0,82,0.00,,,0.00,Rainwise IP-100,2013-10-24 15:11:00,
2013-10-24 10:16:00,36.7,32.0,29.28,West,270,13.3,16.0,81,0.00,,,0.00,Rainwise IP-100,2013-10-24 15:16:00,
2013-10-24 10:21:00,36.8,31.0,29.28,WNW,292,5.4,17.0,79,0.00,,,0.00,Rainwise IP-100,2013-10-24 15:21:00,
2013-10-24 10:26:00,37.0,31.0,29.28,WSW,247,9.8,13.0,78,0.00,,,0.00,Rainwise IP-100,2013-10-24 15:26:00,
2013-10-24 10:31:00,37.3,31.0,29.28,NW,315,3.0,15.0,78,0.00,,,0.00,Rainwise IP-100,2013-10-24 15:31:00,
2013-10-24 10:36:00,37.4,31.0,29.28,NW,315,7.2,13.0,77,0.00,,,0.00,Rainwise IP-100,2013-10-24 15:36:00,
2013-10-24 10:41:00,37.4,31.0,29.28,WSW,247,5.1,12.0,76,0.00,,,0.00,Rainwise IP-100,2013-10-24 15:41:00,
2013-10-24 10:46:00,37.7,31.0,29.28,West,270,7.0,12.0,76,0.00,,,0.00,Rainwise IP-100,2013-10-24 15:46:00,
2013-10-24 10:51:00,38.0,31.0,29.28,WSW,247,8.4,10.0,75,0.00,,,0.00,Rainwise IP-100,2013-10-24 15:51:00,
2013-10-24 10:56:00,38.3,31.0,29.28,WSW,247,10.3,14.0,75,0.00,,,0.00,Rainwise IP-100,2013-10-24 15:56:00,
2013-10-24 11:01:00,38.6,32.0,29.28,West,270,3.3,12.0,74,0.00,,,0.00,Rainwise IP-100,2013-10-24 16:01:00,
2013-10-24 11:06:00,38.9,31.0,29.29,WNW,292,7.0,13.0,72,0.00,,,0.00,Rainwise IP-100,2013-10-24 16:06:00,
2013-10-24 11:11:00,39.0,31.0,29.29,NNW,337,9.6,14.0,71,0.00,,,0.00,Rainwise IP-100,2013-10-24 16:11:00,
2013-10-24 11:16:00,38.9,31.0,29.28,WNW,292,3.7,14.0,70,0.00,,,0.00,Rainwise IP-100,2013-10-24 16:16:00,
2013-10-24 11:21:00,39.3,31.0,29.29,SSW,202,4.7,13.0,70,0.00,,,0.00,Rainwise IP-100,2013-10-24 16:21:00,
2013-10-24 11:26:00,39.4,31.0,29.29,NW,315,1.9,12.0,71,0.00,,,0.00,Rainwise IP-100,2013-10-24 16:26:00,
2013-10-24 11:31:00,39.5,32.0,29.28,WNW,292,8.4,14.0,72,0.00,,,0.00,Rainwise IP-100,2013-10-24 16:31:00,
2013-10-24 11:36:00,39.7,32.0,29.29,WNW,292,11.2,13.0,71,0.00,,,0.00,Rainwise IP-100,2013-10-24 16:36:00,
2013-10-24 11:41:00,39.7,32.0,29.29,NW,315,9.3,12.0,71,0.00,,,0.00,Rainwise IP-100,2013-10-24 16:41:00,
2013-10-24 11:46:00,39.9,32.0,29.29,WNW,292,8.2,17.0,71,0.00,,,0.00,Rainwise IP-100,2013-10-24 16:46:00,
2013-10-24 11:51:00,40.2,32.0,29.29,WNW,292,12.1,13.0,70,0.00,,,0.00,Rainwise IP-100,2013-10-24 16:51:00,
2013-10-24 11:56:00,40.1,31.0,29.28,NW,315,14.2,21.0,69,0.00,,,0.00,Rainwise IP-100,2013-10-24 16:56:00,
2013-10-24 12:01:00,39.9,31.0,29.29,West,270,1.9,18.0,68,0.00,,,0.00,Rainwise IP-100,2013-10-24 17:01:00,
2013-10-24 12:06:00,39.6,31.0,29.29,SSW,202,4.0,16.0,68,0.00,,,0.00,Rainwise IP-100,2013-10-24 17:06:00,
2013-10-24 12:11:00,39.9,31.0,29.29,WNW,292,5.6,13.0,68,0.00,,,0.00,Rainwise IP-100,2013-10-24 17:11:00,
2013-10-24 12:16:00,40.3,31.0,29.29,NW,315,1.6,21.0,68,0.00,,,0.00,Rainwise IP-100,2013-10-24 17:16:00,
2013-10-24 12:21:00,40.5,31.0,29.28,WSW,247,7.0,17.0,67,0.00,,,0.00,Rainwise IP-100,2013-10-24 17:21:00,
2013-10-24 12:26:00,40.6,31.0,29.29,West,270,9.8,17.0,67,0.00,,,0.00,Rainwise IP-100,2013-10-24 17:26:00,
2013-10-24 12:31:00,40.5,31.0,29.29,NNW,337,2.1,16.0,67,0.00,,,0.00,Rainwise IP-100,2013-10-24 17:31:00,
2013-10-24 12:36:00,40.2,31.0,29.29,NNW,337,9.8,15.0,66,0.00,,,0.00,Rainwise IP-100,2013-10-24 17:36:00,
2013-10-24 12:41:00,40.2,29.0,29.29,West,270,9.8,14.0,65,0.00,,,0.00,Rainwise IP-100,2013-10-24 17:41:00,
2013-10-24 12:46:00,40.3,31.0,29.29,NW,315,14.7,14.7,66,0.00,,,0.00,Rainwise IP-100,2013-10-24 17:46:00,
2013-10-24 12:51:00,40.4,31.0,29.29,WNW,292,6.1,15.0,67,0.00,,,0.00,Rainwise IP-100,2013-10-24 17:51:00,
2013-10-24 12:56:00,40.5,31.0,29.29,WNW,292,7.5,12.0,66,0.00,,,0.00,Rainwise IP-100,2013-10-24 17:56:00,
2013-10-24 13:01:00,40.7,31.0,29.29,WSW,247,6.5,13.0,66,0.00,,,0.00,Rainwise IP-100,2013-10-24 18:01:00,
2013-10-24 13:06:00,40.9,31.0,29.29,WNW,292,10.7,12.0,65,0.00,,,0.00,Rainwise IP-100,2013-10-24 18:06:00,
2013-10-24 13:11:00,40.9,31.0,29.29,WNW,292,8.6,12.0,65,0.00,,,0.00,Rainwise IP-100,2013-10-24 18:11:00,
2013-10-24 13:16:00,40.9,31.0,29.29,NW,315,9.3,14.0,65,0.00,,,0.00,Rainwise IP-100,2013-10-24 18:16:00,
2013-10-24 13:21:00,40.8,31.0,29.29,WNW,292,12.4,15.0,65,0.00,,,0.00,Rainwise IP-100,2013-10-24 18:21:00,
2013-10-24 13:26:00,40.6,31.0,29.29,WNW,292,7.5,14.0,65,0.00,,,0.00,Rainwise IP-100,2013-10-24 18:26:00,
2013-10-24 13:31:00,40.8,31.0,29.29,WNW,292,3.7,18.0,64,0.00,,,0.00,Rainwise IP-100,2013-10-24 18:31:00,
2013-10-24 13:36:00,40.9,29.0,29.28,WSW,247,11.0,22.0,63,0.00,,,0.00,Rainwise IP-100,2013-10-24 18:36:00,
2013-10-24 13:41:00,41.0,31.0,29.29,WNW,292,7.9,17.0,64,0.00,,,0.00,Rainwise IP-100,2013-10-24 18:41:00,
2013-10-24 13:46:00,41.1,31.0,29.29,West,270,11.2,14.0,64,0.00,,,0.00,Rainwise IP-100,2013-10-24 18:46:00,
2013-10-24 13:51:00,41.1,29.0,29.29,WNW,292,7.0,18.0,63,0.00,,,0.00,Rainwise IP-100,2013-10-24 18:51:00,
2013-10-24 13:56:00,41.0,29.0,29.29,West,270,5.1,16.0,62,0.00,,,0.00,Rainwise IP-100,2013-10-24 18:56:00,
2013-10-24 14:01:00,41.0,29.0,29.29,NW,315,11.2,13.0,62,0.00,,,0.00,Rainwise IP-100,2013-10-24 19:01:00,
2013-10-24 14:06:00,41.1,29.0,29.29,NW,315,1.4,17.0,63,0.00,,,0.00,Rainwise IP-100,2013-10-24 19:06:00,
2013-10-24 14:11:00,41.3,29.0,29.29,WSW,247,4.7,13.0,63,0.00,,,0.00,Rainwise IP-100,2013-10-24 19:11:00,
2013-10-24 14:16:00,41.2,29.0,29.29,WSW,247,5.1,18.0,63,0.00,,,0.00,Rainwise IP-100,2013-10-24 19:16:00,
2013-10-24 14:21:00,41.0,29.0,29.29,WSW,247,5.1,14.0,63,0.00,,,0.00,Rainwise IP-100,2013-10-24 19:21:00,
2013-10-24 14:26:00,40.9,31.0,29.29,NNW,337,10.0,11.0,64,0.00,,,0.00,Rainwise IP-100,2013-10-24 19:26:00,
2013-10-24 14:31:00,40.9,31.0,29.29,West,270,6.1,12.0,64,0.00,,,0.00,Rainwise IP-100,2013-10-24 19:31:00,
2013-10-24 14:36:00,40.9,31.0,29.29,WNW,292,7.2,14.0,64,0.00,,,0.00,Rainwise IP-100,2013-10-24 19:36:00,
2013-10-24 14:41:00,40.9,31.0,29.29,WNW,292,8.6,12.0,65,0.00,,,0.00,Rainwise IP-100,2013-10-24 19:41:00,
2013-10-24 14:46:00,41.1,31.0,29.29,West,270,6.1,10.0,65,0.00,,,0.00,Rainwise IP-100,2013-10-24 19:46:00,
2013-10-24 14:51:00,41.2,31.0,29.29,WNW,292,6.3,13.0,65,0.00,,,0.00,Rainwise IP-100,2013-10-24 19:51:00,
2013-10-24 14:56:00,41.1,31.0,29.29,WNW,292,6.1,14.0,64,0.00,,,0.00,Rainwise IP-100,2013-10-24 19:56:00,
2013-10-24 15:01:00,41.3,31.0,29.29,West,270,7.0,11.0,65,0.00,,,0.00,Rainwise IP-100,2013-10-24 20:01:00,
2013-10-24 15:06:00,41.4,31.0,29.29,NNW,337,6.1,11.0,65,0.00,,,0.00,Rainwise IP-100,2013-10-24 20:06:00,
2013-10-24 15:11:00,41.2,31.0,29.29,WNW,292,11.2,13.0,64,0.00,,,0.00,Rainwise IP-100,2013-10-24 20:11:00,
2013-10-24 15:16:00,41.4,31.0,29.29,West,270,5.6,13.0,64,0.00,,,0.00,Rainwise IP-100,2013-10-24 20:16:00,
2013-10-24 15:21:00,41.6,31.0,29.29,WNW,292,4.4,11.0,64,0.00,,,0.00,Rainwise IP-100,2013-10-24 20:21:00,
2013-10-24 15:26:00,41.7,32.0,29.29,WNW,292,14.2,14.2,65,0.00,,,0.00,Rainwise IP-100,2013-10-24 20:26:00,
2013-10-24 15:31:00,41.5,31.0,29.29,West,270,4.9,14.0,63,0.00,,,0.00,Rainwise IP-100,2013-10-24 20:31:00,
2013-10-24 15:36:00,41.4,31.0,29.29,West,270,4.2,11.0,64,0.00,,,0.00,Rainwise IP-100,2013-10-24 20:36:00,
2013-10-24 15:41:00,41.4,31.0,29.30,NW,315,6.3,12.0,64,0.00,,,0.00,Rainwise IP-100,2013-10-24 20:41:00,
2013-10-24 15:46:00,41.4,29.0,29.30,WNW,292,3.7,11.0,63,0.00,,,0.00,Rainwise IP-100,2013-10-24 20:46:00,
2013-10-24 15:51:00,41.6,31.0,29.30,West,270,2.3,9.0,64,0.00,,,0.00,Rainwise IP-100,2013-10-24 20:51:00,
2013-10-24 15:56:00,41.7,31.0,29.29,WNW,292,4.7,11.0,64,0.00,,,0.00,Rainwise IP-100,2013-10-24 20:56:00,
2013-10-24 16:01:00,41.7,31.0,29.29,WNW,292,7.0,13.0,63,0.00,,,0.00,Rainwise IP-100,2013-10-24 21:01:00,
2013-10-24 16:06:00,41.6,31.0,29.30,NW,315,3.7,13.0,62,0.00,,,0.00,Rainwise IP-100,2013-10-24 21:06:00,
2013-10-24 16:11:00,41.6,31.0,29.30,WNW,292,10.3,11.0,62,0.00,,,0.00,Rainwise IP-100,2013-10-24 21:11:00,
2013-10-24 16:16:00,41.7,31.0,29.29,WSW,247,3.0,10.0,63,0.00,,,0.00,Rainwise IP-100,2013-10-24 21:16:00,
2013-10-24 16:21:00,41.7,31.0,29.30,West,270,6.3,11.0,63,0.00,,,0.00,Rainwise IP-100,2013-10-24 21:21:00,
2013-10-24 16:26:00,41.7,31.0,29.30,NW,315,4.2,9.0,64,0.00,,,0.00,Rainwise IP-100,2013-10-24 21:26:00,
2013-10-24 16:31:00,41.7,31.0,29.29,WNW,292,3.3,10.0,63,0.00,,,0.00,Rainwise IP-100,2013-10-24 21:31:00,
2013-10-24 16:36:00,41.8,31.0,29.30,WNW,292,4.2,9.0,64,0.00,,,0.00,Rainwise IP-100,2013-10-24 21:36:00,
2013-10-24 16:41:00,41.8,31.0,29.29,West,270,8.4,10.0,64,0.00,,,0.00,Rainwise IP-100,2013-10-24 21:41:00,
2013-10-24 16:46:00,41.7,31.0,29.29,West,270,3.7,8.0,64,0.00,,,0.00,Rainwise IP-100,2013-10-24 21:46:00,
2013-10-24 16:51:00,41.7,31.0,29.30,West,270,5.4,8.0,64,0.00,,,0.00,Rainwise IP-100,2013-10-24 21:51:00,
2013-10-24 16:56:00,41.7,31.0,29.29,West,270,6.5,8.0,64,0.00,,,0.00,Rainwise IP-100,2013-10-24 21:56:00,
2013-10-24 17:01:00,41.7,31.0,29.30,West,270,7.5,10.0,64,0.00,,,0.00,Rainwise IP-100,2013-10-24 22:01:00,
2013-10-24 17:06:00,41.8,31.0,29.29,WNW,292,2.8,8.0,64,0.00,,,0.00,Rainwise IP-100,2013-10-24 22:06:00,
2013-10-24 17:11:00,41.9,32.0,29.30,West,270,4.7,11.0,65,0.00,,,0.00,Rainwise IP-100,2013-10-24 22:11:00,
2013-10-24 17:16:00,41.8,32.0,29.30,West,270,7.7,12.0,65,0.00,,,0.00,Rainwise IP-100,2013-10-24 22:16:00,
2013-10-24 17:21:00,41.9,32.0,29.30,NNW,337,3.5,9.0,65,0.00,,,0.00,Rainwise IP-100,2013-10-24 22:21:00,
2013-10-24 17:26:00,41.9,32.0,29.30,West,270,4.4,9.0,65,0.00,,,0.00,Rainwise IP-100,2013-10-24 22:26:00,
2013-10-24 17:31:00,41.9,32.0,29.30,West,270,6.1,11.0,65,0.00,,,0.00,Rainwise IP-100,2013-10-24 22:31:00,
2013-10-24 17:36:00,41.9,32.0,29.30,WSW,247,5.4,9.0,65,0.00,,,0.00,Rainwise IP-100,2013-10-24 22:36:00,
2013-10-24 17:41:00,41.8,32.0,29.30,West,270,4.9,8.0,66,0.00,,,0.00,Rainwise IP-100,2013-10-24 22:41:00,
2013-10-24 17:46:00,41.8,32.0,29.30,West,270,4.9,5.0,66,0.00,,,0.00,Rainwise IP-100,2013-10-24 22:46:00,
2013-10-24 17:51:00,41.8,32.0,29.30,West,270,2.6,8.0,66,0.00,,,0.00,Rainwise IP-100,2013-10-24 22:51:00,
2013-10-24 17:56:00,41.7,32.0,29.31,West,270,4.2,5.0,66,0.00,,,0.00,Rainwise IP-100,2013-10-24 22:56:00,
2013-10-24 18:01:00,41.7,32.0,29.30,West,270,5.6,7.0,67,0.00,,,0.00,Rainwise IP-100,2013-10-24 23:01:00,
2013-10-24 18:06:00,41.6,32.0,29.31,West,270,3.7,5.0,67,0.00,,,0.00,Rainwise IP-100,2013-10-24 23:06:00,
2013-10-24 18:11:00,41.5,32.0,29.31,WSW,247,4.0,5.0,67,0.00,,,0.00,Rainwise IP-100,2013-10-24 23:11:00,
2013-10-24 18:16:00,41.5,32.0,29.31,West,270,4.0,5.0,67,0.00,,,0.00,Rainwise IP-100,2013-10-24 23:16:00,
2013-10-24 18:21:00,41.4,31.0,29.31,WSW,247,3.0,4.0,67,0.00,,,0.00,Rainwise IP-100,2013-10-24 23:21:00,
2013-10-24 18:26:00,41.3,31.0,29.31,WSW,247,4.0,5.0,67,0.00,,,0.00,Rainwise IP-100,2013-10-24 23:26:00,
2013-10-24 18:31:00,41.3,32.0,29.31,WSW,247,0.0,4.0,68,0.00,,,0.00,Rainwise IP-100,2013-10-24 23:31:00,
2013-10-24 18:36:00,41.3,32.0,29.31,WSW,247,3.3,4.0,68,0.00,,,0.00,Rainwise IP-100,2013-10-24 23:36:00,
2013-10-24 18:41:00,41.2,32.0,29.31,West,270,4.4,6.0,69,0.00,,,0.00,Rainwise IP-100,2013-10-24 23:41:00,
2013-10-24 18:46:00,41.2,32.0,29.31,West,270,3.0,6.0,68,0.00,,,0.00,Rainwise IP-100,2013-10-24 23:46:00,
2013-10-24 18:51:00,41.1,32.0,29.31,West,270,7.7,7.7,69,0.00,,,0.00,Rainwise IP-100,2013-10-24 23:51:00,
2013-10-24 18:56:00,41.2,32.0,29.31,WSW,247,2.6,7.0,69,0.00,,,0.00,Rainwise IP-100,2013-10-24 23:56:00,
2013-10-24 19:01:00,41.2,32.0,29.31,West,270,5.1,7.0,69,0.00,,,0.00,Rainwise IP-100,2013-10-25 00:01:00,
2013-10-24 19:06:00,41.2,32.0,29.31,West,270,1.6,7.0,68,0.00,,,0.00,Rainwise IP-100,2013-10-25 00:06:00,
2013-10-24 19:11:00,41.1,32.0,29.32,WNW,292,3.5,7.0,68,0.00,,,0.00,Rainwise IP-100,2013-10-25 00:11:00,
2013-10-24 19:16:00,41.1,32.0,29.32,WSW,247,6.5,7.0,69,0.00,,,0.00,Rainwise IP-100,2013-10-25 00:16:00,
2013-10-24 19:21:00,41.0,32.0,29.32,West,270,4.0,8.0,69,0.00,,,0.00,Rainwise IP-100,2013-10-25 00:21:00,
2013-10-24 19:26:00,41.0,32.0,29.32,WSW,247,2.3,6.0,69,0.00,,,0.00,Rainwise IP-100,2013-10-25 00:26:00,
2013-10-24 19:31:00,41.0,32.0,29.32,WSW,247,3.5,7.0,69,0.00,,,0.00,Rainwise IP-100,2013-10-25 00:31:00,
2013-10-24 19:36:00,41.0,32.0,29.32,West,270,5.4,8.0,69,0.00,,,0.00,Rainwise IP-100,2013-10-25 00:36:00,
2013-10-24 19:41:00,40.9,32.0,29.32,West,270,5.6,7.0,70,0.00,,,0.00,Rainwise IP-100,2013-10-25 00:41:00,
2013-10-24 19:46:00,40.8,32.0,29.32,West,270,5.1,9.0,70,0.00,,,0.00,Rainwise IP-100,2013-10-25 00:46:00,
2013-10-24 19:51:00,40.8,32.0,29.32,WSW,247,1.6,9.0,71,0.00,,,0.00,Rainwise IP-100,2013-10-25 00:51:00,
2013-10-24 19:56:00,40.7,32.0,29.32,WSW,247,5.8,9.0,71,0.00,,,0.00,Rainwise IP-100,2013-10-25 00:56:00,
2013-10-24 20:01:00,40.5,33.0,29.32,West,270,6.1,11.0,72,0.00,,,0.00,Rainwise IP-100,2013-10-25 01:01:00,
2013-10-24 20:06:00,40.4,32.0,29.32,WSW,247,5.4,10.0,72,0.00,,,0.00,Rainwise IP-100,2013-10-25 01:06:00,
2013-10-24 20:11:00,40.4,32.0,29.32,NNW,337,6.5,11.0,72,0.00,,,0.00,Rainwise IP-100,2013-10-25 01:11:00,
2013-10-24 20:16:00,40.4,32.0,29.32,WSW,247,6.5,12.0,73,0.00,,,0.00,Rainwise IP-100,2013-10-25 01:16:00,
2013-10-24 20:21:00,40.4,32.0,29.32,WSW,247,7.5,10.0,73,0.00,,,0.00,Rainwise IP-100,2013-10-25 01:21:00,
2013-10-24 20:26:00,40.3,33.0,29.32,WNW,292,3.7,10.0,74,0.00,,,0.00,Rainwise IP-100,2013-10-25 01:26:00,
2013-10-24 20:31:00,40.2,33.0,29.32,WNW,292,5.6,11.0,74,0.00,,,0.00,Rainwise IP-100,2013-10-25 01:31:00,
2013-10-24 20:36:00,40.1,33.0,29.32,WSW,247,5.8,12.0,74,0.00,,,0.00,Rainwise IP-100,2013-10-25 01:36:00,
2013-10-24 20:41:00,40.1,33.0,29.32,WSW,247,8.9,9.0,75,0.00,,,0.00,Rainwise IP-100,2013-10-25 01:41:00,
2013-10-24 20:46:00,40.0,33.0,29.32,West,270,11.7,11.7,75,0.00,,,0.00,Rainwise IP-100,2013-10-25 01:46:00,
2013-10-24 20:51:00,39.9,33.0,29.32,WSW,247,4.0,12.0,76,0.00,,,0.00,Rainwise IP-100,2013-10-25 01:51:00,
2013-10-24 20:56:00,39.8,33.0,29.32,WSW,247,4.4,12.0,76,0.00,,,0.00,Rainwise IP-100,2013-10-25 01:56:00,
2013-10-24 21:01:00,39.7,33.0,29.32,NW,315,4.4,10.0,76,0.00,,,0.00,Rainwise IP-100,2013-10-25 02:01:00,
2013-10-24 21:06:00,39.6,33.0,29.32,West,270,4.7,9.0,76,0.00,,,0.00,Rainwise IP-100,2013-10-25 02:06:00,
2013-10-24 21:11:00,39.5,33.0,29.32,West,270,7.5,8.0,76,0.00,,,0.00,Rainwise IP-100,2013-10-25 02:11:00,
2013-10-24 21:16:00,39.5,33.0,29.32,WSW,247,7.0,8.0,77,0.00,,,0.00,Rainwise IP-100,2013-10-25 02:16:00,
2013-10-24 21:21:00,39.4,33.0,29.32,WSW,247,4.7,8.0,78,0.00,,,0.00,Rainwise IP-100,2013-10-25 02:21:00,
2013-10-24 21:26:00,39.5,35.0,29.33,West,270,2.8,7.0,78,0.00,,,0.00,Rainwise IP-100,2013-10-25 02:26:00,
2013-10-24 21:31:00,39.4,33.0,29.33,West,270,3.0,10.0,78,0.00,,,0.00,Rainwise IP-100,2013-10-25 02:31:00,
2013-10-24 21:36:00,39.3,33.0,29.33,West,270,5.8,8.0,78,0.00,,,0.00,Rainwise IP-100,2013-10-25 02:36:00,
2013-10-24 21:41:00,39.2,33.0,29.33,WSW,247,4.9,8.0,78,0.00,,,0.00,Rainwise IP-100,2013-10-25 02:41:00,
2013-10-24 21:46:00,39.2,33.0,29.33,West,270,3.0,8.0,78,0.00,,,0.00,Rainwise IP-100,2013-10-25 02:46:00,
2013-10-24 21:51:00,39.1,33.0,29.33,WSW,247,6.3,7.0,79,0.00,,,0.00,Rainwise IP-100,2013-10-25 02:51:00,
2013-10-24 21:56:00,38.8,33.0,29.33,West,270,3.3,8.0,79,0.00,,,0.00,Rainwise IP-100,2013-10-25 02:56:00,
2013-10-24 22:01:00,38.6,33.0,29.34,WSW,247,2.6,9.0,79,0.00,,,0.00,Rainwise IP-100,2013-10-25 03:01:00,
2013-10-24 22:06:00,38.6,33.0,29.34,West,270,1.6,8.0,80,0.00,,,0.00,Rainwise IP-100,2013-10-25 03:06:00,
2013-10-24 22:11:00,38.5,33.0,29.34,WNW,292,3.0,8.0,81,0.00,,,0.00,Rainwise IP-100,2013-10-25 03:11:00,
2013-10-24 22:16:00,38.4,33.0,29.33,WSW,247,4.2,9.0,81,0.00,,,0.00,Rainwise IP-100,2013-10-25 03:16:00,
2013-10-24 22:21:00,38.4,33.0,29.34,WSW,247,5.4,8.0,81,0.00,,,0.00,Rainwise IP-100,2013-10-25 03:21:00,
2013-10-24 22:26:00,38.3,33.0,29.34,West,270,3.0,8.0,81,0.00,,,0.00,Rainwise IP-100,2013-10-25 03:26:00,
2013-10-24 22:31:00,38.4,33.0,29.34,WSW,247,4.9,6.0,82,0.00,,,0.00,Rainwise IP-100,2013-10-25 03:31:00,
2013-10-24 22:36:00,38.3,33.0,29.34,WSW,247,5.6,7.0,82,0.00,,,0.00,Rainwise IP-100,2013-10-25 03:36:00,
2013-10-24 22:41:00,38.2,33.0,29.34,WSW,247,7.5,8.0,82,0.00,,,0.00,Rainwise IP-100,2013-10-25 03:41:00,
2013-10-24 22:46:00,38.1,33.0,29.34,West,270,4.2,7.0,82,0.00,,,0.00,Rainwise IP-100,2013-10-25 03:46:00,
2013-10-24 22:51:00,38.0,33.0,29.34,West,270,5.6,8.0,82,0.00,,,0.00,Rainwise IP-100,2013-10-25 03:51:00,
2013-10-24 22:56:00,37.9,33.0,29.34,WNW,292,5.4,8.0,82,0.00,,,0.00,Rainwise IP-100,2013-10-25 03:56:00,
2013-10-24 23:01:00,37.9,33.0,29.34,WSW,247,5.1,8.0,82,0.00,,,0.00,Rainwise IP-100,2013-10-25 04:01:00,
2013-10-24 23:06:00,37.9,33.0,29.34,West,270,4.9,7.0,83,0.00,,,0.00,Rainwise IP-100,2013-10-25 04:06:00,
2013-10-24 23:11:00,37.9,33.0,29.34,WNW,292,3.5,7.0,83,0.00,,,0.00,Rainwise IP-100,2013-10-25 04:11:00,
2013-10-24 23:16:00,37.9,33.0,29.34,WSW,247,3.5,7.0,83,0.00,,,0.00,Rainwise IP-100,2013-10-25 04:16:00,
2013-10-24 23:21:00,37.9,33.0,29.34,WSW,247,6.1,9.0,82,0.00,,,0.00,Rainwise IP-100,2013-10-25 04:21:00,
2013-10-24 23:26:00,37.9,33.0,29.34,WSW,247,4.7,7.0,82,0.00,,,0.00,Rainwise IP-100,2013-10-25 04:26:00,
2013-10-24 23:31:00,37.8,33.0,29.35,WSW,247,3.7,8.0,82,0.00,,,0.00,Rainwise IP-100,2013-10-25 04:31:00,
2013-10-24 23:36:00,37.8,33.0,29.34,West,270,4.4,7.0,82,0.00,,,0.00,Rainwise IP-100,2013-10-25 04:36:00,
2013-10-24 23:41:00,37.7,33.0,29.34,WSW,247,8.6,8.6,82,0.00,,,0.00,Rainwise IP-100,2013-10-25 04:41:00,
2013-10-24 23:46:00,37.6,33.0,29.34,WSW,247,8.2,10.0,82,0.00,,,0.00,Rainwise IP-100,2013-10-25 04:46:00,
2013-10-24 23:51:00,37.6,33.0,29.35,WSW,247,5.6,11.0,82,0.00,,,0.00,Rainwise IP-100,2013-10-25 04:51:00,
2013-10-24 23:56:00,37.6,33.0,29.35,WSW,247,5.8,9.0,82,0.00,,,0.00,Rainwise IP-100,2013-10-25 04:56:00,